TimeMDT,TemperatureF,Dew PointF,Humidity,Sea Level PressureIn,VisibilityMPH,Wind Direction,Wind SpeedMPH,Gust SpeedMPH,PrecipitationIn,Events,Conditions,WindDirDegrees,DateUTC
12:53 AM,55.9,34.0,44,29.94,10.0,SSE,6.9,-,N/A,,Scattered Clouds,150,2012-10-04 06:53:00
1:53 AM,55.0,32.0,42,29.95,10.0,ESE,6.9,-,N/A,,Clear,120,2012-10-04 07:53:00
2:53 AM,51.1,33.1,50,29.96,10.0,SE,6.9,-,N/A,,Clear,140,2012-10-04 08:53:00
3:53 AM,48.9,28.9,46,29.96,10.0,SSE,6.9,-,N/A,,Clear,160,2012-10-04 09:53:00
4:53 AM,46.9,28.0,48,29.97,10.0,SSE,6.9,-,N/A,,Clear,160,2012-10-04 10:53:00
5:53 AM,46.9,28.9,50,29.98,10.0,SSE,5.8,-,N/A,,Clear,150,2012-10-04 11:53:00
6:53 AM,46.9,28.9,50,30.00,10.0,SSE,9.2,-,N/A,,Clear,150,2012-10-04 12:53:00
7:53 AM,46.9,30.0,52,30.02,10.0,SSE,6.9,-,N/A,,Clear,150,2012-10-04 13:53:00
8:53 AM,53.1,30.9,43,30.01,10.0,Calm,Calm,-,N/A,,Clear,0,2012-10-04 14:53:00
9:53 AM,60.1,28.0,30,29.99,10.0,Calm,Calm,-,N/A,,Clear,0,2012-10-04 15:53:00
10:53 AM,66.0,28.9,25,29.98,10.0,Calm,Calm,-,N/A,,Clear,0,2012-10-04 16:53:00
11:53 AM,73.0,27.0,18,29.94,10.0,Variable,3.5,-,N/A,,Clear,0,2012-10-04 17:53:00
12:53 PM,78.1,27.0,15,29.91,10.0,WSW,17.3,26.5,N/A,,Clear,240,2012-10-04 18:53:00
1:53 PM,80.1,26.1,14,29.87,10.0,WSW,17.3,26.5,N/A,,Clear,250,2012-10-04 19:53:00
2:53 PM,78.1,24.1,14,29.87,10.0,West,17.3,28.8,N/A,,Clear,270,2012-10-04 20:53:00
3:53 PM,79.0,26.1,14,29.86,9.0,West,18.4,44.9,N/A,,Partly Cloudy,280,2012-10-04 21:53:00
4:53 PM,78.1,26.1,15,29.86,10.0,WSW,15.0,26.5,N/A,,Clear,250,2012-10-04 22:53:00
5:53 PM,75.0,25.0,16,29.86,10.0,West,10.4,-,N/A,,Clear,260,2012-10-04 23:53:00
6:53 PM,70.0,27.0,20,29.88,10.0,South,6.9,-,N/A,,Clear,170,2012-10-05 00:53:00
7:53 PM,68.0,28.9,23,29.88,10.0,SSW,11.5,-,N/A,,Scattered Clouds,210,2012-10-05 01:53:00
8:53 PM,70.0,28.9,22,29.87,10.0,SW,16.1,-,N/A,,Scattered Clouds,220,2012-10-05 02:53:00
9:53 PM,66.9,30.0,25,29.88,10.0,NNW,4.6,-,N/A,,Mostly Cloudy,330,2012-10-05 03:53:00
10:53 PM,63.0,34.0,34,29.88,10.0,ESE,3.5,-,N/A,,Overcast,120,2012-10-05 04:53:00
11:53 PM,63.0,34.0,34,29.82,10.0,SE,11.5,-,N/A,,Mostly Cloudy,130,2012-10-05 05:53:00